"Pseudo-MPEC" for C1FZWE5

Created 2026 Sep 5 10:35:04 UT using Find_Orb

Click here for an explanation of pseudo-MPECs

 
 Astrometry: 
     C1FZWE5*1C2026 09 05.21374521 44 16.732+02 57 56.30   ~955o 21.67GVNEOCPV00
     C1FZWE5 1C2026 09 05.21932821 44 16.379+02 58 34.90   ~955o 22.12GVNEOCPV00
     C1FZWE5 1C2026 09 05.22491621 44 16.048+02 59 13.85   ~955o 21.74GVNEOCPV00
     C1FZWE5 1C2026 09 05.23050221 44 15.713+02 59 52.51   ~955o 21.69GVNEOCPV00
     C1FZWE5 1C2026 09 05.32863321 44 09.690+03 11 06.22   ~958K 22.83GVNEOCPV00
     C1FZWE5 1C2026 09 05.32925221 44 09.668+03 11 10.21   ~958K 22.36GVNEOCPV00
     C1FZWE5 1C2026 09 05.32987321 44 09.625+03 11 14.82   ~958K       VNEOCPV00
     C1FZWE5 1C2026 09 05.33049321 44 09.600+03 11 18.85   ~958K 22.29GVNEOCPV00

Station data:
(V00) Kitt Peak-Bok  (N31.963125 W111.600190)  US/Arizona. Measurers T.
   Beuden, V. F. Carvajal, D. Fay, J. B. Fazekas, D. C. Fuls, A. R. Gibbs, A.
   D. Grauer, H. Gröller, J. K. Hogan, R. A. Kowalski, S. M. Larson, G. J.
   Leonard, D. Rankin, R. L. Seaman, F. C. Shelly, K. W. Wierzchoś. 2.25-m
   reflector + 4x4K mosaic CCD.

Orbital elements:  C1FZWE5
   Perihelion 2026 Oct 13.704493 +/- 36.8 TT = 16:54:28.1 (JD 2461327.204493)
Epoch 2026 Sep  5.0 TT = JDT 2461288.5   Earth MOID: 0.0907   Ju: 0.6309
M 354.597419137 +/- 20              Ma: 0.0038                   AutoNEOCP
n   0.139585367 +/- 0.206           Peri.   57.924552 +/- 58
a   3.680522291 +/- 3.63            Node   328.774235 +/- 21
e   0.72964936 +/- 0.255            Incl.    9.019913 +/- 8
P   7.06097                H 25.44  G  0.15   U 11.7  SR
q 0.995031534 +/- 0.18    Q 6.366013048 +/- 13.1          (J2000 ecliptic)
From 8 observations 2026 Sept. 5 (2.8 hr); mean residual 0".30
Residuals in arcseconds: 
260905 V00  .06+  .69-    260905 V00  .09+  .76+    260905 V00  .04-  .12+    
260905 V00  .15-  .31-    260905 V00  .17-  .07+    260905 V00  .14+  .12-    
260905 V00  .00   .37+    260905 V00  .05+  .21-    

Ephemerides (geocentric):
Date (UTC) HH   RA             Dec           delta  r     elong  mag " sig PA
---- --------  ------------   ------------  ------ ------ -----  --- --------
2026 09 05 11  21 44 06.117   +03 26 35.90  .13841 1.1389 159.4 22.4  113 116
2026 09 05 12  21 44 04.480   +03 31 26.75  .13818 1.1386 159.3 22.4  133 113
2026 09 05 13  21 44 02.841   +03 36 18.53  .13795 1.1383 159.3 22.4  154 111
2026 09 05 14  21 44 01.200   +03 41 11.24  .13772 1.1380 159.2 22.4  176 109
2026 09 05 15  21 43 59.559   +03 46 04.90  .13749 1.1377 159.1 22.4  197 108
2026 09 05 16  21 43 57.916   +03 50 59.51  .13725 1.1374 159.0 22.4  220 108
2026 09 05 17  21 43 56.272   +03 55 55.06  .13702 1.1371 159.0 22.4  242 108
2026 09 05 18  21 43 54.626   +04 00 51.56  .13679 1.1369 158.9 22.4  265 108
2026 09 05 19  21 43 52.979   +04 05 49.01  .13656 1.1366 158.8 22.4  289 108
2026 09 05 20  21 43 51.331   +04 10 47.42  .13633 1.1363 158.7 22.4  312 108
2026 09 05 21  21 43 49.682   +04 15 46.79  .13611 1.1360 158.7 22.4  336 109
2026 09 05 22  21 43 48.031   +04 20 47.12  .13588 1.1357 158.6 22.3  361 110
2026 09 05 23  21 43 46.379   +04 25 48.41  .13565 1.1355 158.5 22.3  386 111
2026 09 06 00  21 43 44.726   +04 30 50.68  .13542 1.1352 158.5 22.3  412 112
2026 09 06 01  21 43 43.071   +04 35 53.91  .13519 1.1349 158.4 22.3  439 113
2026 09 06 02  21 43 41.415   +04 40 58.12  .13497 1.1346 158.3 22.3  467 115
2026 09 06 03  21 43 39.758   +04 46 03.30  .13474 1.1343 158.2 22.3  495 116
2026 09 06 04  21 43 38.099   +04 51 09.47  .13451 1.1340 158.2 22.3  525 118
2026 09 06 05  21 43 36.439   +04 56 16.62  .13429 1.1338 158.1 22.3  556 120
2026 09 06 06  21 43 34.778   +05 01 24.75  .13406 1.1335 158.0 22.3  588 123
2026 09 06 07  21 43 33.115   +05 06 33.87  .13384 1.1332 157.9 22.3  622 125
2026 09 06 08  21 43 31.451   +05 11 43.99  .13361 1.1329 157.9 22.3  658 127
2026 09 06 09  21 43 29.786   +05 16 55.10  .13339 1.1326 157.8 22.3  695 130
2026 09 06 10  21 43 28.120   +05 22 07.20  .13317 1.1324 157.7 22.3  735 132
2026 09 06 11  21 43 26.452   +05 27 20.31  .13294 1.1321 157.6 22.3  777 134
2026 09 06 12  21 43 24.783   +05 32 34.42  .13272 1.1318 157.6 22.3  821 137
2026 09 06 13  21 43 23.113   +05 37 49.54  .13250 1.1315 157.5 22.3  867 139
2026 09 06 14  21 43 21.441   +05 43 05.67  .13227 1.1312 157.4 22.3  916 141
2026 09 06 15  21 43 19.768   +05 48 22.81  .13205 1.1310 157.3 22.3  967 142
2026 09 06 16  21 43 18.094   +05 53 40.96  .13183 1.1307 157.3 22.3 1020 144
2026 09 06 17  21 43 16.418   +05 59 00.14  .13161 1.1304 157.2 22.3 1075 146
2026 09 06 18  21 43 14.741   +06 04 20.33  .13139 1.1301 157.1 22.3 1133 147
2026 09 06 19  21 43 13.063   +06 09 41.55  .13117 1.1299 157.0 22.3 1193 148
2026 09 06 20  21 43 11.384   +06 15 03.80  .13095 1.1296 156.9 22.3 1256 149
2026 09 06 21  21 43 09.703   +06 20 27.08  .13073 1.1293 156.9 22.3 1321 150
2026 09 06 22  21 43 08.021   +06 25 51.39  .13051 1.1290 156.8 22.3 1389 151
2026 09 06 23  21 43 06.337   +06 31 16.74  .13029 1.1287 156.7 22.3 1459 152
2026 09 07 00  21 43 04.653   +06 36 43.13  .13008 1.1285 156.6 22.3 1531 153
2026 09 07 01  21 43 02.967   +06 42 10.56  .12986 1.1282 156.6 22.3 1606 153
2026 09 07 02  21 43 01.280   +06 47 39.03  .12964 1.1279 156.5 22.3 1684 154
2026 09 07 03  21 42 59.591   +06 53 08.55  .12942 1.1276 156.4 22.3 1765 154
2026 09 07 04  21 42 57.901   +06 58 39.13  .12921 1.1274 156.3 22.3 1848 155
2026 09 07 05  21 42 56.210   +07 04 10.75  .12899 1.1271 156.2 22.3 1934 155
2026 09 07 06  21 42 54.518   +07 09 43.44  .12878 1.1268 156.2 22.3 2024 156
2026 09 07 07  21 42 52.824   +07 15 17.18  .12856 1.1265 156.1 22.3 2116 156
2026 09 07 08  21 42 51.129   +07 20 51.99  .12835 1.1263 156.0 22.3 2211 156
2026 09 07 09  21 42 49.433   +07 26 27.86  .12813 1.1260 155.9 22.3 2310 157
2026 09 07 10  21 42 47.735   +07 32 04.81  .12792 1.1257 155.8 22.3 2412 157